Location: Hope
(40.9110°N, 74.9680°W)
Time: 00:43:03
(UTC-05:00)

Envisat - Pass Details

Date: 26 January 2019
Orbit: 764 x 766 km, 98.2° (Epoch: 17 February)

Event Time Altitude Azimuth Distance (km) Brightness Sun altitude
Rises 17:39:11 0° 131° (SE) 3,222 5.9 -6.0°
Reaches altitude 10° 17:41:51 10° 118° (ESE) 2,300 5.1 -6.5°
Maximum altitude 17:45:51 24° 66° (ENE) 1,546 4.0 -7.2°
Drops below altitude 10° 17:49:52 10° 13° (NNE) 2,311 5.2 -8.0°
Sets 17:52:33 0° 0° (N) 3,241 6.1 -8.4°
